Hourly Data Report for October 24, 2015

All times are specified in Local Standard Time (LST). Add 1 hour to adjust for Daylight Saving Time where and when it is observed.

PANGNIRTUNG
NUNAVUT

66°08'36.300" N
65°42'40.500" W
22.60 m
2403049
71826
WXP

Download Data

Hourly Data (October 2015)
Hourly Data Report for October 24, 2015
Temp Definition
°C
Dew Point Temp Definition
°C
Rel Hum Definition
%
Wind Dir Definition
10's deg

Wind Spd Definition
km/h
Visibility Definition
km
Stn Press Definition
kPa
Hmdx Definition


Wind Chill Definition


Weather Definition


TIME
00:00 -9.0 -12.8 74 25 6   100.45   -12 LegendNANA
01:00 -8.9 -12.1 78 8 3   100.39   -11 LegendNANA
02:00 -9.0 -11.2 84 11 4   100.31   -11 LegendNANA
03:00 -7.9 -10.8 80 21 6   100.18   -11 LegendNANA
04:00 -7.9 -10.6 81 8 6   100.10   -11 LegendNANA
05:00 -7.6 -9.9 83 7 8   100.00   -12 LegendNANA
06:00 -7.1 -9.5 83 7 7   99.91   -11 LegendNANA
07:00 -7.4 -9.3 86 11 9   99.76   -12 LegendNANA
08:00 -6.2 -9.1 80 5 6   99.65   -9 LegendNANA
09:00 -4.9 -8.6 75 12 24   99.52   -12 LegendNANA
10:00 -4.3 -8.3 74 8 19   99.45   -10 LegendNANA
11:00 -4.9 -8.9 73 8 22   99.34   -12 LegendNANA
12:00 -4.8 -8.4 76 9 31   99.21   -13 LegendNANA
13:00 -4.2 -7.5 78 8 26   99.09   -11 LegendNANA
14:00 -4.1 -6.3 84 9 31   98.93   -12 LegendNANA
15:00 -3.8 -6.0 84 11 36   98.82   -12 LegendNANA
16:00 -3.5 -5.7 85 11 44   98.68   -12 LegendNANA
17:00 -3.3 -5.2 87 13 42   98.61   -12 LegendNANA
18:00 -2.3 -5.1 81 12 39   98.59   -10 LegendNANA
19:00 -2.2 -4.8 82 11 30   98.55   -9 LegendNANA
20:00 -1.9 -4.6 82 12 28   98.48   -9 LegendNANA
21:00 -1.8 -4.5 82 11 39   98.39   -10 LegendNANA
22:00 -1.8 -4.2 84 12 41   98.27   -10 LegendNANA
23:00 -1.4 -4.4 80 13 40   98.19   -9 LegendNANA

Notes on Data Quality.

Legend

  • E = Estimated
  • M = Missing
  • NA = Not Available
  • ‡ = Partner data that is not subject to review by the National Climate Archives
Date modified: